[[{"header":{"parameterUnit":"m.s-1","parameterCategory":1,"la1":30.2991,"la2":30.254,"lo1":-89.0895,"lo2":-89.0444,"dy":0.0017,"dx":0.0017,"nx":28,"ny":28,"refTime":"2024-03-04T09:00:00:Z","depth":0,"parameterNumber":2,"parameterNumberName":"U-component_of_WINDS"},"data":[0,0,0,0,0,0,0,0,0,0,0,0,0,0,0,0,0,0,0,0,0,0,0,0,0,0,0,0,0,0,0,0,0,0,0,0,0,0,0,0,0,0,0,0,0,0,0,0,0,0,0,0,0,0,0,0,0,0,-6.5387,-6.5388,0,-6.5447,-6.5447,-6.5448,-6.535,-6.5347,-6.5343,-6.534,-6.5401,-6.5406,-6.541,0,0,0,0,0,0,0,0,0,0,0,0,0,-6.519,-6.5194,-6.5387,-6.5388,-6.5389,-6.5447,-6.5447,-6.5448,-6.535,-6.5346,-6.5342,-6.5339,-6.54,-6.5405,-6.5411,0,0,0,0,0,0,0,0,0,0,0,0,0,-6.5265,-6.5195,-6.5387,-6.5347,-6.5344,-6.5446,-6.5447,-6.5448,-6.5351,-6.5346,-6.5341,-6.5337,-6.5398,-6.5405,-6.5412,-6.5556,0,0,-6.5433,-6.5436,0,0,0,0,0,0,0,0,-6.5261,-6.5272,-6.5352,-6.535,-6.5347,-6.5386,-6.54,-6.5485,-6.5353,-6.5349,-6.534,-6.5334,-6.54,-6.5407,-6.5429,-6.5559,-6.5562,-6.5434,-6.5438,-6.5441,-6.5443,0,0,0,0,0,0,0,-6.5256,-6.5269,-6.5411,-6.5353,-6.535,-6.5326,-6.5331,-6.5416,-6.5402,-6.5348,-6.5341,-6.535,-6.5398,-6.5422,-6.543,-6.5563,-6.5434,-6.544,-6.5445,-6.5447,-6.5816,-6.5821,0,0,0,0,0,0,-6.5255,-6.5265,-6.5409,-6.5412,-6.529,-6.5334,-6.534,-6.5378,-6.5401,-6.5399,-6.5354,-6.5345,-6.5413,-6.5421,-6.5431,-6.5602,-6.5441,-6.5448,-6.5452,-6.581,-6.5817,-6.5823,0,0,0,0,0,0,-6.5252,-6.5269,-6.5406,-6.5337,-6.5353,-6.5343,-6.5387,-6.5382,-6.5406,-6.5405,-6.5402,-6.5382,-6.5409,-6.5421,-6.5526,-6.5603,-6.5451,-6.5458,-6.5804,-6.5812,-6.582,-6.5945,0,0,0,0,0,0,-6.5246,-6.5268,-6.5323,-6.5339,-6.5357,-6.55,-6.5392,-6.5387,-6.5419,-6.5408,-6.543,-6.5429,-6.5406,-6.5516,-6.5533,-6.561,-6.5463,-6.5797,-6.5807,-6.5817,-6.5933,-6.5956,-6.5975,0,0,0,0,0,-6.524,-6.5355,-6.5326,-6.5344,-6.5425,-6.5504,-6.5515,-6.5486,-6.5426,-6.548,-6.548,-6.5428,-6.5592,-6.5528,-6.5546,-6.5626,-6.5792,-6.5804,-6.5816,-6.5924,-6.5952,-6.5975,0,0,0,0,0,0,-6.5347,-6.5356,-6.5324,-6.5448,-6.5477,-6.5488,-6.5555,-6.5516,-6.5561,-6.5549,-6.5512,-6.5518,-6.563,-6.5639,-6.5567,-6.5768,-6.5682,-6.5699,-6.5757,-6.5784,-6.5804,-6.5799,-6.5469,0,0,0,0,0,-6.5385,-6.5449,-6.5454,-6.5564,-6.5579,-6.5566,-6.5599,-6.5575,-6.5603,-6.5614,-6.5621,-6.565,-6.5708,-6.5746,-6.58,-6.5935,-6.5939,-6.6,-6.6021,-6.6038,-6.6052,-6.6125,-6.6152,-6.5863,-6.5863,-6.5863,0,0,-6.5465,-6.5478,-6.552,-6.5586,-6.5604,-6.5672,-6.5576,-6.5651,-6.5701,-6.5625,-6.5724,-6.5731,-6.5761,-6.5882,-6.5936,-6.5892,-6.6133,-6.6054,-6.6067,-6.6072,-6.614,-6.6167,-6.6192,-6.5872,-6.587,-6.5869,0,0,-6.5643,-6.566,-6.5753,-6.5774,-6.5805,-6.5795,-6.5818,-6.5836,-6.5838,-6.5937,-6.5882,-6.5941,-6.6042,-6.6065,-6.6091,-6.6282,-6.6236,-6.6301,-6.6409,-6.648,-6.6503,-6.6523,-6.659,-6.6615,-6.6315,-6.6316,-6.6316,0,-6.5737,-6.5836,-6.5805,-6.5885,-6.5915,-6.5852,-6.5946,-6.5968,-6.6015,-6.6037,-6.5989,-6.6115,-6.6131,-6.6256,-6.6303,-6.6326,-6.6351,-6.6296,-6.6502,-6.6522,-6.654,-6.6604,-6.6629,-6.6323,-6.6322,-6.6322,-6.6321,0,-6.5951,-6.6021,-6.6092,-6.6139,-6.6178,-6.6265,-6.6247,-6.6291,-6.6265,-6.6261,-6.6363,-6.638,-6.6436,-6.6465,-6.644,-6.6588,-6.656,-6.6508,-6.642,-6.6575,-6.6635,-6.6659,-6.6334,-6.6331,-6.6329,-6.6327,0,0,-6.6195,-6.6226,-6.6252,-6.6273,-6.6304,-6.6357,-6.6442,-6.6497,-6.6535,-6.657,-6.664,-6.6728,-6.668,-6.6709,-6.6687,-6.675,-6.69,-6.669,-6.669,-6.6727,-6.7064,-6.7101,-6.713,-6.6871,-6.6875,-6.6879,-6.7061,0,-6.6371,-6.6516,-6.6492,-6.6633,-6.6697,-6.664,-6.6713,-6.6741,-6.674,-6.6795,-6.6795,-6.6857,-6.679,-6.6807,-6.6867,-6.6869,-6.6966,-6.6856,-6.6934,-6.6938,-6.6926,-6.7161,-6.72,-6.7371,-6.7084,-6.7088,-6.7091,0,-6.6595,-6.664,-6.6787,-6.6809,-6.6835,-6.6901,-6.6951,-6.7004,-6.7035,-6.703,-6.7064,-6.703,-6.7115,-6.7029,-6.7146,-6.7071,-6.7103,-6.7109,-6.7115,-6.7119,-6.7022,-6.717,-6.7424,-6.7449,-6.7127,-6.7124,-6.7121,0,-6.6757,-6.6854,-6.6954,-6.6975,-6.7003,-6.7051,-6.7065,-6.709,-6.7126,-6.717,-6.7192,-6.7246,-6.7274,-6.7317,-6.7299,-6.7238,-6.7419,-6.7331,-6.7417,-6.7418,-6.7455,-6.7453,-6.7717,-6.748,-6.748,-6.7479,-6.7479,0,-6.6955,-6.7047,-6.7027,-6.7089,-6.7191,-6.7164,-6.7266,-6.7273,-6.7297,-6.7359,-6.7314,-6.7373,-6.7347,-6.7406,-6.7393,-6.7491,-6.7505,-6.7503,-6.7498,-6.7506,-6.7506,-6.7524,-6.7511,-6.7486,-6.7484,-6.7483,-6.7482,0,-6.7151,-6.7142,-6.7248,-6.7267,-6.7274,-6.7348,-6.7364,-6.7422,-6.742,-6.75,-6.7517,-6.7513,-6.7579,-6.7567,-6.764,-6.7631,-6.7754,-6.7736,-6.7744,-6.7738,-6.7824,-6.7816,-6.8107,-6.8143,-6.7886,-6.7888,-6.789,0,-6.7277,-6.7346,-6.7374,-6.7412,-6.743,-6.7493,-6.7529,-6.7507,-6.7547,-6.7588,-6.7641,-6.7704,-6.7752,-6.7862,-6.7865,-6.7921,-6.7902,-6.8001,-6.791,-6.7916,-6.7902,-6.7897,-6.7904,-6.8018,-6.8021,-6.8023,-6.8025,0,-6.75,-6.7493,-6.7547,-6.7601,-6.7645,-6.7686,-6.7722,-6.7757,-6.7738,-6.7785,-6.7853,-6.7891,-6.7966,-6.8029,-6.8082,-6.8096,-6.8058,-6.8054,-6.8077,-6.8084,-6.8085,-6.8084,-6.779,-6.8047,-6.8045,-6.8043,-6.8042,-6.8041,-6.7663,-6.7723,-6.7752,-6.7814,-6.784,-6.7875,-6.7931,-6.7937,-6.7993,-6.8052,-6.8036,-6.8113,-6.8144,-6.8211,-6.8232,-6.8292,-6.8255,-6.8288,-6.8296,-6.8304,-6.8313,-6.8078,-6.8302,-6.8301,-6.8301,-6.83,-6.83,0,-6.7883,-6.79,-6.7957,-6.801,-6.806,-6.8021,-6.806,-6.8104,-6.8172,-6.8204,-6.8254,-6.8332,-6.8394,-6.8404,-6.8462,-6.8508,-6.8492,-6.8524,-6.8519,-6.8523,-6.8344,-6.8318,-6.8536,-6.8536,-6.8536,-6.8536,-6.8536,-6.8536,-6.8003,-6.8101,-6.8098,-6.8209,-6.8225,-6.83,-6.8326,-6.8359,-6.8384,-6.8474,-6.8525,-6.8532,-6.8555,-6.8615,-6.867,-6.8672,-6.8694,-6.8733,-6.8728,-6.8559,-6.8536,-6.8513,-6.8488,-6.8739,-6.8739,-6.8902,-6.8903,-6.8904]},{"header":{"parameterUnit":"m.s-1","parameterCategory":1,"la1":30.2991,"la2":30.254,"lo1":-89.0895,"lo2":-89.0444,"dy":0.0017,"dx":0.0017,"nx":28,"ny":28,"refTime":"2024-03-04T09:00:00:Z","depth":0,"parameterNumber":3,"parameterNumberName":"V-component_of_WINDS"},"data":[0,0,0,0,0,0,0,0,0,0,0,0,0,0,0,0,0,0,0,0,0,0,0,0,0,0,0,0,0,0,0,0,0,0,0,0,0,0,0,0,0,0,0,0,0,0,0,0,0,0,0,0,0,0,0,0,0,0,1.0451,1.0452,0,1.053,1.053,1.0531,1.0581,1.0581,1.0581,1.0582,1.0661,1.0663,1.0665,0,0,0,0,0,0,0,0,0,0,0,0,0,1.0344,1.0346,1.0451,1.0452,1.0453,1.0529,1.053,1.0532,1.0581,1.0581,1.0582,1.0582,1.066,1.0663,1.0665,0,0,0,0,0,0,0,0,0,0,0,0,0,1.0403,1.0346,1.0451,1.0487,1.0491,1.0529,1.0531,1.0532,1.0581,1.0581,1.0582,1.0582,1.066,1.0662,1.0665,1.0674,0,0,1.0674,1.0675,0,0,0,0,0,0,0,0,1.04,1.0407,1.048,1.0484,1.0489,1.0546,1.0522,1.0579,1.0581,1.0546,1.0582,1.0582,1.0622,1.0628,1.0642,1.0677,1.0681,1.0674,1.0676,1.0677,1.0678,0,0,0,0,0,0,0,1.0396,1.0404,1.0482,1.0481,1.0486,1.0499,1.0508,1.0533,1.0581,1.055,1.0553,1.0562,1.0625,1.0639,1.0644,1.0682,1.0674,1.0676,1.0678,1.0679,1.0732,1.0731,0,0,0,0,0,0,1.0386,1.04,1.0479,1.0484,1.0445,1.0501,1.0511,1.0527,1.0581,1.059,1.0562,1.0564,1.0634,1.0641,1.0647,1.0663,1.0677,1.0679,1.0681,1.0732,1.0732,1.0731,0,0,0,0,0,0,1.0383,1.0393,1.0476,1.0443,1.0455,1.0502,1.052,1.0528,1.0543,1.059,1.0599,1.0568,1.0635,1.0643,1.0668,1.0666,1.0681,1.0683,1.0732,1.0732,1.0731,1.0693,0,0,0,0,0,0,1.038,1.0391,1.0395,1.0443,1.0457,1.0495,1.052,1.053,1.0548,1.0552,1.0598,1.0606,1.0636,1.0663,1.067,1.067,1.0685,1.0733,1.0732,1.0732,1.0694,1.0691,1.0688,0,0,0,0,0,1.0376,1.0379,1.0394,1.0404,1.0462,1.0495,1.0502,1.0537,1.0547,1.0552,1.0582,1.0605,1.0665,1.0665,1.0674,1.0674,1.0733,1.0732,1.0732,1.0696,1.0691,1.0688,0,0,0,0,0,0,1.0328,1.0386,1.0404,1.0423,1.0453,1.0503,1.0509,1.0531,1.0559,1.0562,1.0603,1.0613,1.0634,1.0657,1.0656,1.0687,1.0702,1.0703,1.0671,1.0668,1.0665,1.0659,1.0688,0,0,0,0,0,1.032,1.0342,1.0392,1.0404,1.0418,1.0461,1.0476,1.0501,1.0534,1.0547,1.058,1.0611,1.0638,1.0654,1.0681,1.0698,1.071,1.0703,1.07,1.0697,1.0697,1.0711,1.0709,1.0729,1.0729,1.0729,0,0,1.0303,1.0338,1.0348,1.0395,1.0422,1.0444,1.0471,1.0493,1.0511,1.055,1.0576,1.0601,1.0639,1.066,1.0671,1.068,1.0695,1.0696,1.0694,1.0696,1.071,1.0708,1.0706,1.0729,1.0729,1.0729,0,0,1.0284,1.0311,1.0326,1.0353,1.0393,1.0422,1.0426,1.0473,1.0491,1.0518,1.0549,1.057,1.0614,1.0641,1.066,1.0654,1.0676,1.0662,1.0646,1.0658,1.0657,1.0655,1.0655,1.0654,1.0662,1.0662,1.0662,0,1.0257,1.0292,1.033,1.0351,1.0372,1.041,1.0426,1.045,1.0497,1.051,1.0519,1.0578,1.0606,1.0635,1.0634,1.0648,1.0654,1.0656,1.0654,1.0653,1.0652,1.0652,1.0652,1.066,1.066,1.066,1.0661,0,1.0259,1.0283,1.0289,1.0336,1.0357,1.0375,1.0416,1.0433,1.0456,1.0484,1.0512,1.0548,1.0584,1.0592,1.0614,1.0626,1.063,1.0646,1.0661,1.0648,1.0649,1.0649,1.0657,1.0658,1.0659,1.0659,0,0,1.021,1.0279,1.0281,1.0303,1.0352,1.0372,1.0393,1.0429,1.0443,1.0475,1.0494,1.0532,1.0548,1.057,1.0596,1.0606,1.0602,1.0622,1.0623,1.0618,1.0619,1.0607,1.0607,1.0617,1.0617,1.0617,1.0616,0,1.0199,1.0238,1.0274,1.0301,1.0325,1.0363,1.0382,1.0414,1.0441,1.0466,1.0496,1.0523,1.0541,1.0555,1.0568,1.06,1.0603,1.06,1.0636,1.0637,1.0626,1.0607,1.0594,1.0591,1.0617,1.0617,1.0617,0,1.0191,1.0223,1.0252,1.0301,1.0313,1.0328,1.0366,1.0388,1.0427,1.0446,1.0472,1.05,1.0525,1.0538,1.0574,1.0571,1.0588,1.0607,1.0608,1.0613,1.0626,1.0612,1.0591,1.0591,1.0617,1.0617,1.0617,0,1.0154,1.0204,1.0229,1.0247,1.0304,1.0315,1.034,1.0379,1.0399,1.0432,1.0446,1.048,1.05,1.0526,1.0563,1.0569,1.0596,1.0611,1.0613,1.0612,1.0617,1.0616,1.0599,1.0627,1.0627,1.0627,1.0627,0,1.0138,1.0155,1.0214,1.0229,1.0249,1.0291,1.0311,1.0339,1.0374,1.0396,1.0431,1.045,1.0498,1.0524,1.0553,1.0579,1.0587,1.0604,1.0612,1.0601,1.0599,1.0613,1.0615,1.0627,1.0627,1.0627,1.0627,0,1.0101,1.014,1.017,1.0223,1.0237,1.025,1.0296,1.0313,1.0343,1.0371,1.038,1.0427,1.046,1.05,1.0544,1.0564,1.0588,1.0599,1.0575,1.058,1.058,1.058,1.0571,1.0573,1.0598,1.0598,1.0598,0,1.0088,1.0102,1.0158,1.0176,1.02,1.0227,1.0249,1.0291,1.0312,1.0359,1.0371,1.0406,1.0437,1.0487,1.0526,1.0561,1.0574,1.0569,1.0579,1.0569,1.0576,1.0575,1.0577,1.0566,1.0565,1.0565,1.0565,0,1.0063,1.0083,1.0112,1.015,1.0175,1.0206,1.0239,1.0252,1.0301,1.0323,1.0358,1.0382,1.0429,1.0465,1.0505,1.0531,1.0556,1.0561,1.0564,1.0553,1.054,1.0549,1.0569,1.0561,1.0561,1.0562,1.0562,1.0562,1.0039,1.0054,1.0096,1.0129,1.0159,1.0189,1.0208,1.0242,1.0272,1.0314,1.0337,1.0372,1.0412,1.047,1.0495,1.0523,1.0532,1.0535,1.0536,1.0536,1.0534,1.0535,1.053,1.053,1.0531,1.0531,1.0531,0,1.0016,1.0046,1.0076,1.0122,1.0148,1.0171,1.0209,1.0229,1.0259,1.0295,1.0326,1.0366,1.0402,1.0444,1.0482,1.0496,1.0509,1.0505,1.0505,1.0511,1.0523,1.0518,1.0494,1.0494,1.0494,1.0494,1.0494,1.0494,1.0008,1.0036,1.0061,1.0104,1.0134,1.0169,1.0189,1.0218,1.0247,1.0291,1.0321,1.0349,1.0388,1.043,1.0464,1.0475,1.0488,1.0481,1.0496,1.0506,1.051,1.0513,1.0508,1.0483,1.0483,1.0482,1.0482,1.0482]}]]